Regional Weather Roundup
Issued by NWS

Current Version | Previous Version | Text Only | Print | Product List | Glossary On
Versions: 1 2 3 4 5 6 7 8 9 10 11 12 13 14 15 16 17 18 19 20 21 22 23 24 25 26 27
000
ASUS44 KBMX 231610
RWRAL

ALABAMA REGIONAL WEATHER ROUNDUP
NATIONAL WEATHER SERVICE BIRMINGHAM AL
1100 AM CDT THU OCT 23 2014

NOTE: "FAIR" INDICATES FEW OR NO CLOUDS BELOW 12,000 FEET
WITH NO SIGNIFICANT WEATHER AND/OR OBSTRUCTIONS TO VISIBILITY.

THE REMARK "TC" DENOTES TEMPERATURE IN DEGREES CELSIUS.

ALZ001>011-014-016>018-020-231700-
NORTH ALABAMA

CITY           SKY/WX    TMP DP  RH WIND       PRES   REMARKS
MUSCLE SHOALS  MOSUNNY   58  41  53 E7        30.21S
HUNTSVILLE     MOSUNNY   59  42  53 NE3       30.18F
DECATUR        SUNNY     57  42  57 CALM      30.20S
HALEYVILLE     FAIR      59  44  57 NE3       30.21S
GADSDEN        SUNNY     57  41  54 E5        30.18F
$$

ALZ012-013-022-023-030>036-040>044-231700-
WEST CENTRAL ALABAMA

CITY           SKY/WX    TMP DP  RH WIND       PRES   REMARKS
TUSCALOOSA     SUNNY     61  42  49 E7        30.17F
$$

ALZ015-024>027-033>036-040>044-231700-
CENTRAL ALABAMA

CITY           SKY/WX    TMP DP  RH WIND       PRES   REMARKS
BIRMINGHAM     MOSUNNY   60  42  51 NE7       30.18F
MONTGOMERY     SUNNY     63  45  51 E5        30.16R
SHELBY CO ARPT SUNNY     61  45  55 VRB3      30.17F
MAXWELL AFB    SUNNY     61  46  57 VRB2      30.15S
GREENVILLE     FAIR      66  46  48 CALM      30.13
$$

ALZ019-021-028-029-037-038-045>048-231700-
EAST CENTRAL ALABAMA

CITY           SKY/WX    TMP DP  RH WIND       PRES   REMARKS
ANNISTON       SUNNY     60  43  53 CALM      30.17S
ALEXANDER CITY SUNNY     60  46  59 CALM      30.16S
AUBURN         SUNNY     57  43  58 S5        30.17S
$$

ALZ051>064-231700-
SOUTHWEST ALABAMA

CITY           SKY/WX    TMP DP  RH WIND       PRES   REMARKS
MOBILE         MOSUNNY   65  47  52 E9        30.13F
BROOKLEY FIELD SUNNY     65  49  56 NE8       30.14F
EVERGREEN      SUNNY     65  46  50 CALM      30.14S
$$

ALZ049-050-065>069-231700-
SOUTHEAST ALABAMA

CITY           SKY/WX    TMP DP  RH WIND       PRES   REMARKS
DOTHAN         SUNNY     66  44  45 E7        30.15S
OZARK          SUNNY     66  46  47 NE7       30.11F
TROY           SUNNY     65  47  52 VRB3      30.14S
EUFAULA        FAIR      65  47  52 CALM      30.12F
$$



USA.gov is the U.S. government's official web portal to all federal, state and local government web resources and services.